Terug naar catalogus

KUIPER-00040

ActiefCommunicatieLEO
NORAD 64501·PAYLOAD·🇺🇸 United States

Gelanceerd Jun 23, 2025 vanaf Cape Canaveral Space Force Station

Loading…

Volgende Passages (komende 24 uur)

TLE

VersSource: CelesTrak SupGP

Epoch: Sep 14, 2026, 23:45 UTC

1 64501C 25134B   26257.99010417  .00004734  00000+0  61971-3 0  2575
2 64501  51.8963 126.0929 0001182 100.3732 169.9835 14.79926998    13

Volg KUIPER-00040 in realtime met AllMySat

Download on the App Store